www.pogodaiklimat.ru

Погода и климат >> Архив погоды >> Гренландия >> Aputiteq Ads


ПОГОДА в Aputiteq Ads

  • Прогноз погоды в Aputiteq Ads
  • Монитор погоды в Aputiteq Ads

АРХИВ ПОГОДЫ в Aputiteq Ads

Время (UTC), дата Ветер
(напр.,м/с)
 
Видим.   Явления Облачность Т
(С)
Тd
(С)
f
(%)
Тe
(С)
Тes
(С)
Комфортность P
(гПа)
Po
(гПа)
Тmin
(С)
Tmax
(С)
R
(мм)
R24
(мм)
S
(см)
04 9.06 З 2 н/о н/о +0.5 -0.2 95 -3 -3 1026.7 1025.0
05 9.06 Ю 1 н/о н/о +1.0 -0.9 87 +1 +1 1026.9 1025.2
06 9.06 В 1 н/о н/о +0.5 -1.1 89 -0 -0 1027.3 1025.6
07 9.06 С 2 н/о н/о +1.2 -1.0 85 -2 -2 1027.9 1026.2
08 9.06 СВ 7 н/о н/о +0.8 -1.4 85 -6 -6 1028.3 1026.6
09 9.06 СВ 9 н/о н/о +1.3 -1.1 84 -6 -6 1028.7 1027.0
10 9.06 СВ 9 н/о н/о +2.6 -1.6 74 -4 -4 1029.0 1027.3
11 9.06 СВ 9 н/о н/о +2.7 -1.8 72 -4 -4 1029.4 1027.7
12 9.06 СВ 9 н/о н/о +4.2 -3.8 56 -2 -2 1029.7 1028.0
13 9.06 СВ 8 н/о н/о +4.2 -3.8 56 -1 -1 1029.7 1028.0
14 9.06 СВ 7 н/о н/о +4.8 -4.2 52 -0 -0 1029.6 1027.9
15 9.06 СВ 6 н/о н/о +4.0 -4.0 56 -1 -1 1029.7 1028.0
16 9.06 СВ 5 н/о н/о +4.0 -3.5 58 -1 -1 1029.8 1028.1
17 9.06 СВ 2 н/о н/о +4.3 -3.2 58 +3 +3 1029.7 1028.0
18 9.06 СЗ 2 н/о н/о +4.9 -2.9 57 +3 +3 1029.3 1027.6
19 9.06 СЗ 2 н/о н/о +3.3 -1.3 72 +1 +1 1029.0 1027.3
20 9.06 З 1 н/о н/о +3.7 -2.3 65 +3 +3 1028.5 1026.8
21 9.06 В 1 н/о н/о +3.3 -2.2 67 +3 +3 1028.2 1026.5
22 9.06 СЗ 1 н/о н/о +3.9 -3.8 57 +4 +4 1027.9 1026.2
23 9.06 З 2 н/о н/о +2.1 -2.4 72 -0 -0 1027.8 1026.1
00 10.06 ЮЗ 2 н/о н/о +0.8 -2.3 80 -3 -3 1027.9 1026.2
01 10.06 З 2 н/о н/о +0.9 -3.4 73 -2 -2 1027.8 1026.1
02 10.06 З 3 н/о н/о +0.8 -2.6 78 -3 -3 1027.7 1026.0
03 10.06 З 2 н/о н/о +1.6 -2.5 74 -2 -2 1027.7 1026.0
04 10.06 З 1 н/о н/о +1.3 -1.8 80 -1 -1 1027.5 1025.8
05 10.06 С 1 н/о н/о +1.3 -2.3 77 +1 +1 1027.4 1025.7
06 10.06 В 2 н/о н/о +2.0 -2.1 74 -0 -0 1027.3 1025.6
07 10.06 З 1 н/о н/о +2.1 -3.6 66 +1 +1 1027.3 1025.6
08 10.06 З 1 н/о н/о +1.7 -3.0 71 0 0 1027.6 1025.9
09 10.06 В 1 н/о н/о +3.4 -2.4 66 +4 +4 1027.7 1026.0
10 10.06 ЮВ 1 н/о н/о +1.3 -1.9 79 -0 -0 1027.8 1026.1
11 10.06 СЗ 2 н/о н/о +0.7 -2.3 80 -3 -3 1028.0 1026.3
12 10.06 В 1 н/о н/о +2.0 -1.6 77 +2 +2 1028.2 1026.5
13 10.06 ЮВ 2 н/о н/о +1.5 -1.4 81 -1 -1 1028.6 1026.9
14 10.06 Ю 1 н/о н/о +1.9 -1.7 77 0 0 1028.7 1027.0
15 10.06 СВ 1 н/о н/о +3.4 -1.4 71 +2 +2 1028.4 1026.7
16 10.06 З 1 н/о н/о +2.2 -1.1 79 +1 +1 1028.7 1027.0
17 10.06 Ю 1 н/о н/о +2.1 -0.8 81 +2 +2 1029.0 1027.3
18 10.06 Ю 1 н/о н/о +2.2 -0.6 82 +1 +1 1029.0 1027.3
19 10.06 З 1 н/о н/о +2.7 -1.1 76 +1 +1 1029.2 1027.5
20 10.06 ЮЗ 2 н/о н/о +1.3 -0.5 88 -2 -2 1029.5 1027.8
21 10.06 ЮВ 1 н/о н/о +1.5 -0.6 86 +1 +1 1029.5 1027.8
22 10.06 ЮВ 1 н/о н/о +1.1 -0.5 89 -1 -1 1030.0 1028.3
23 10.06 З 2 н/о н/о +0.9 -0.6 90 -2 -2 1030.4 1028.7
00 11.06 СЗ 3 н/о н/о +1.5 -0.6 86 -2 -2 1031.0 1029.3
01 11.06 З 1 н/о н/о -0.4 -1.0 96 -1 -1 1031.0 1029.3
02 11.06 В 1 н/о н/о -1.4 -1.5 99 -2 -2 1031.3 1029.6
03 11.06 В 1 н/о н/о -2.3 -2.4 99 -3 -3 1031.2 1029.5
04 11.06 ЮВ 1 н/о н/о -2.0 -2.0 100 -5 -5 1031.5 1029.8
05 11.06 В 1 н/о н/о -1.8 -2.3 96 -4 -4 1031.8 1030.1
06 11.06 СЗ 4 н/о н/о -1.0 -1.7 95 -7 -7 1032.4 1030.7
07 11.06 СВ 1 н/о н/о +0.1 -1.3 90 -2 -2 1032.3 1030.6
08 11.06 В 2 н/о н/о -0.3 -1.4 92 -3 -3 1032.7 1031.0
09 11.06 З 3 н/о н/о -0.1 -1.1 93 -5 -5 1033.2 1031.5
10 11.06 СЗ 3 н/о н/о +0.2 -1.1 91 -4 -4 1033.4 1031.7
11 11.06 ЮЗ 3 н/о н/о +0.1 -0.9 93 -4 -4 1033.7 1032.0
12 11.06 СЗ 4 н/о н/о +1.5 -0.4 87 -4 -4 1033.5 1031.8
13 11.06 Ю 1 н/о н/о +0.7 -0.8 90 -1 -1 1034.3 1032.6
14 11.06 ЮЗ 2 н/о н/о +0.7 -0.6 91 -3 -3 1034.7 1033.0
15 11.06 СЗ 4 н/о н/о +1.1 -0.2 91 -4 -4 1034.8 1033.1
16 11.06 Ю 2 н/о н/о +1.1 -0.2 91 -3 -3 1035.1 1033.4
17 11.06 ЮЗ 2 н/о н/о +1.3 -0.2 90 -2 -2 1035.3 1033.6
18 11.06 СЗ 3 н/о н/о +2.0 +0.2 88 -2 -2 1035.1 1033.4
19 11.06 ЮЗ 3 н/о н/о +1.4 +0.4 93 -3 -3 1035.3 1033.6
20 11.06 ЮЗ 2 н/о н/о +1.6 +0.3 91 -1 -1 1035.5 1033.8
21 11.06 З 2 н/о н/о +2.3 +0.7 89 -1 -1 1035.5 1033.8
22 11.06 В 1 н/о н/о +3.0 +0.5 84 +1 +1 1035.1 1033.4
23 11.06 ЮВ 1 н/о н/о +1.3 +0.3 93 -1 -1 1035.5 1033.8
00 12.06 ЮЗ 1 н/о н/о +0.8 +0.1 95 -1 -1 1036.1 1034.4
01 12.06 ЮЗ 2 н/о н/о +0.8 +0.2 96 -2 -2 1035.7 1034.0
02 12.06 З 2 н/о н/о +1.2 0.0 92 -2 -2 1035.1 1033.4
03 12.06 З 2 н/о н/о +0.8 +0.1 95 -3 -3 1035.1 1033.4
04 12.06 З 4 н/о н/о +2.0 +0.7 91 -3 -3 1034.7 1033.0
05 12.06 З 3 н/о н/о +4.3 -0.1 73 +1 +1 1034.3 1032.6
06 12.06 ЮЗ 2 н/о н/о +0.6 -0.4 93 -3 -3 1034.3 1032.6
07 12.06 З 3 н/о н/о +1.4 +0.2 92 -3 -3 1034.0 1032.3
08 12.06 ЮЗ 2 н/о н/о +1.8 0.0 88 -2 -2 1033.9 1032.2
09 12.06 ЮЗ 2 н/о н/о +1.0 -0.2 92 -3 -3 1033.8 1032.1
10 12.06 ЮЗ 2 н/о н/о +1.5 -0.1 89 -1 -1 1033.7 1032.0
11 12.06 ЮЗ 2 н/о н/о +1.7 -0.1 88 -2 -2 1033.7 1032.0
12 12.06 З 2 н/о н/о +2.4 +0.3 86 -0 -0 1033.3 1031.6
13 12.06 ЮЗ 2 н/о н/о +1.8 +0.3 90 -2 -2 1033.0 1031.3
14 12.06 Ю 1 н/о н/о +2.9 +0.5 84 +1 +1 1032.7 1031.0
15 12.06 З 2 н/о н/о +2.1 +0.5 89 -1 -1 1032.4 1030.7
16 12.06 З 3 н/о н/о +2.6 +0.8 88 -1 -1 1032.0 1030.3
17 12.06 ЮЗ 2 н/о н/о +2.9 +0.8 86 0 0 1031.5 1029.8
18 12.06 ЮЗ 1 н/о н/о +3.1 +1.0 86 +2 +2 1031.3 1029.6
19 12.06 З 2 н/о н/о +2.8 +0.8 87 -0 -0 1030.8 1029.1
20 12.06 ЮЗ 2 н/о н/о +2.7 +1.1 89 0 0 1030.5 1028.8
21 12.06 З 2 н/о н/о +2.5 +1.0 90 -1 -1 1030.1 1028.4
22 12.06 ЮЗ 2 н/о н/о +2.4 +0.9 90 -1 -1 1029.3 1027.6
23 12.06 ЮЗ 2 н/о н/о +2.6 +1.1 90 0 0 1028.5 1026.8
00 13.06 В 1 н/о н/о +2.8 +1.0 88 +1 +1 1028.1 1026.4
01 13.06 З 3 н/о н/о +2.3 +1.0 91 -2 -2 1027.9 1026.2
02 13.06 З 3 н/о н/о +2.4 +1.1 91 -2 -2 1027.3 1025.6
03 13.06 З 3 н/о н/о +3.5 +1.5 87 -0 -0 1027.0 1025.3
04 13.06 В 1 н/о н/о +2.4 +0.9 90 +1 +1 1026.8 1025.1
05 13.06 В 1 н/о н/о +2.6 +0.3 85 +1 +1 1026.7 1025.0
06 13.06 ЮВ 1 н/о н/о +3.0 0.0 81 +3 +3 1026.5 1024.8
07 13.06 СЗ 1 н/о н/о +3.4 +0.1 79 +3 +3 1026.5 1024.8
08 13.06 ЮВ 1 н/о н/о +3.2 -0.3 78 +3 +3 1026.7 1025.0
09 13.06 З 1 н/о н/о +2.7 -0.2 81 +1 +1 1026.8 1025.1
10 13.06 СВ 2 н/о н/о +7.5 +1.5 66 +6 +6 1026.2 1024.5
11 13.06 СВ 3 н/о н/о +9.4 +0.5 54 +8 +8 1026.2 1024.5
12 13.06 С 1 н/о н/о +9.7 +1.0 55 +11 +11 1026.3 1024.6
13 13.06 С 1 н/о н/о +10.9 +1.6 53 +11 +11 1026.4 1024.7
14 13.06 З 1 н/о н/о +7.3 +0.9 64 +7 +7 1026.8 1025.1
15 13.06 СЗ 1 н/о н/о +8.5 +1.8 63 +8 +8 1026.5 1024.8
16 13.06 В 2 н/о н/о +9.0 +1.6 60 +8 +8 1026.2 1024.5
17 13.06 СВ 2 н/о н/о +9.2 +1.3 58 +8 +8 1026.5 1024.8
18 13.06 СВ 4 н/о н/о +8.1 +1.2 62 +5 +5 1026.4 1024.7
19 13.06 В 2 н/о н/о +9.1 +1.0 57 +8 +8 1026.3 1024.6
20 13.06 СВ 5 н/о н/о +8.3 +0.7 59 +5 +5 1026.1 1024.4
21 13.06 СВ 7 н/о н/о +7.7 +0.4 60 +3 +3 1026.3 1024.6
22 13.06 СВ 8 н/о н/о +6.9 +0.1 62 +2 +2 1026.3 1024.6
23 13.06 СВ 7 н/о н/о +6.7 +0.3 64 +2 +2 1026.6 1024.9
00 14.06 СВ 10 н/о н/о +5.9 +0.4 68 0 0 1026.3 1024.6
01 14.06 СВ 7 н/о н/о +6.8 +0.6 65 +2 +2 1026.8 1025.1
02 14.06 СВ 5 н/о н/о +4.9 +0.6 74 +1 +1 1026.4 1024.7
03 14.06 СВ 5 н/о н/о +3.8 +0.5 79 -1 -1 1026.5 1024.8
04 14.06 СВ 5 н/о н/о +3.4 +0.3 80 -2 -2 1026.2 1024.5
05 14.06 СВ 5 н/о н/о +4.1 +0.4 77 -1 -1 1025.8 1024.1
06 14.06 СВ 4 н/о н/о +3.9 +0.2 77 -1 -1 1025.8 1024.1
07 14.06 ЮЗ 1 н/о н/о +2.7 -0.2 81 +2 +2 1025.5 1023.8
08 14.06 В 2 н/о н/о +3.1 +0.1 81 0 0 1025.5 1023.8
09 14.06 В 2 н/о н/о +2.9 0.0 81 -0 -0 1025.2 1023.5
10 14.06 СВ 4 н/о н/о +3.1 +0.3 82 -1 -1 1025.1 1023.4
11 14.06 СВ 4 н/о н/о +3.0 +0.4 83 -1 -1 1025.0 1023.3
12 14.06 СВ 5 н/о н/о +2.7 +0.3 84 -3 -3 1024.9 1023.2
13 14.06 СВ 6 н/о н/о +2.8 +0.5 85 -3 -3 1024.9 1023.2
14 14.06 В 6 н/о н/о +2.0 +0.4 89 -4 -4 1025.2 1023.5
15 14.06 СВ 6 н/о н/о +2.8 +0.4 84 -3 -3 1024.9 1023.2
16 14.06 СВ 6 н/о н/о +3.4 +0.8 83 -2 -2 1024.7 1023.0
17 14.06 СВ 4 н/о н/о +3.3 +0.5 82 -1 -1 1024.5 1022.8
18 14.06 СВ 4 н/о н/о +4.2 +1.0 80 0 0 1024.3 1022.6
19 14.06 В 3 н/о н/о +3.1 +0.8 85 -1 -1 1024.1 1022.4
20 14.06 Ю 1 н/о н/о +2.7 +0.6 86 +2 +2 1024.1 1022.4
21 14.06 В 3 н/о н/о +1.8 +0.3 90 -2 -2 1024.0 1022.3
22 14.06 В 2 н/о н/о +1.4 -0.2 89 -2 -2 1024.1 1022.4
23 14.06 ЮВ 2 н/о н/о -0.7 -0.8 99 -5 -5 1024.6 1022.9
00 15.06 В 2 н/о н/о -1.1 -1.4 98 -4 -4 1024.9 1023.2
01 15.06 В 3 н/о н/о -1.3 -1.4 99 -6 -6 1025.2 1023.5
02 15.06 СВ 2 н/о н/о -0.9 -1.0 99 -4 -4 1025.2 1023.5
03 15.06 СВ 1 н/о н/о -1.0 -1.0 100 -3 -3 1024.8 1023.1
04 15.06 Ю 1 н/о н/о -1.8 -1.8 100 -3 -3 1024.5 1022.8
05 15.06 З 2 н/о н/о -2.0 -2.1 99 -6 -6 1024.1 1022.4
06 15.06 СЗ 3 н/о н/о -2.1 -2.4 98 -7 -7 1024.0 1022.3
07 15.06 СЗ 1 н/о н/о -1.7 -2.4 95 -3 -3 1024.0 1022.3
08 15.06 З 2 н/о н/о -1.9 -2.3 97 -6 -6 1024.1 1022.4
09 15.06 З 2 н/о н/о -1.5 -2.0 96 -6 -6 1024.2 1022.5
10 15.06 З 2 н/о н/о -1.1 -1.6 96 -5 -5 1024.2 1022.5
11 15.06 СЗ 2 н/о н/о -0.9 -1.4 96 -5 -5 1023.9 1022.2
12 15.06 З 2 н/о н/о -0.5 -1.1 96 -4 -4 1023.6 1021.9
13 15.06 З 1 н/о н/о +0.3 -0.4 95 -2 -2 1023.2 1021.5
14 15.06 ЮЗ 2 н/о н/о +0.5 -0.2 95 -3 -3 1023.1 1021.4
15 15.06 З 2 н/о н/о +1.2 0.0 92 -2 -2 1022.5 1020.8
16 15.06 СЗ 2 н/о н/о +2.1 0.0 86 -1 -1 1022.1 1020.4
17 15.06 ЮЗ 1 н/о н/о +1.9 +0.6 91 0 0 1021.8 1020.1
18 15.06 З 2 н/о н/о +1.9 +0.6 91 -2 -2 1021.3 1019.6
19 15.06 З 2 н/о н/о +2.1 +0.6 90 -1 -1 1020.9 1019.2
20 15.06 ЮЗ 1 н/о н/о +2.9 +0.8 86 +1 +1 1020.4 1018.7
21 15.06 ЮЗ 2 н/о н/о +1.7 +0.5 92 -2 -2 1020.2 1018.5
22 15.06 З 3 н/о н/о +2.3 +1.3 93 -2 -2 1019.8 1018.1
23 15.06 З 3 н/о н/о +2.8 +1.8 93 -1 -1 1019.2 1017.5
00 16.06 З 2 н/о н/о +2.7 +1.5 92 -1 -1 1018.7 1017.0
01 16.06 Ю 1 н/о н/о +1.9 +1.2 95 +1 +1 1018.4 1016.7
02 16.06 З 3 н/о н/о +1.5 +0.8 95 -3 -3 1018.2 1016.5

 

Местоположение метеостанции Aputiteq Ads (Гренландия): широта 67.78 долгота -32.29 высота над уровнем моря 12 м.

В архиве по умолчанию представлена погода в Aputiteq Ads за последнюю неделю. Архивные данные за месяц целиком и за предыдущие месяцы, начиная с января 2011 года, Вы можете получить, выбрав интересующий диапазон дат из раскрывающегося списка и нажав кнопку "Ввод!".


*Определитесь, кто Вы:
робот инопланетянин человек

Внимание! Время в таблицах - всемирное. Для получения местного времени необходимо прибавить поправку, которая равна -3 ч.

Смотрите также архив погоды в соседних городах и на ближайших метеорологических станциях:

Погода в Kulusuk (Гренландия) (325 км)
Погода в Tasiilaq (Гренландия) (337 км)
Погода в Болюнгарвик Шелфви (Исландия) (432 км)
Погода в Болунгарвике (Исландия) (433 км)
Погода на Хорнбьяргсвити (Исландия) (454 км)
Погода в Ikermiit (Гренландия) (489 км)
Погода в Constable Pynt (Гренландия) (502 км)
Погода в Ittoqqortoormiit (Гренландия) (507 км)
Погода в Стиккисхоульмюре (Исландия) (520 км)
Погода в Блёндюоусе (Исландия) (577 км)

Пояснения к столбцам:

Ветер - указаны скорость ветра в м/с - средняя за 10 мин, порывы в срок и между сроками (в фигурных скобках) и направление, откуда дует ветер: С - северный, СВ - северо-восточный, В - восточный, ЮВ - юго-восточный, Ю - южный, ЮЗ - юго-западный, З - западный, СЗ - северо-западный.
Видимость - горизонтальная дальность видимости в метрах или километрах. При видимости от 1 до 10 км при отсутствии осадков обычно наблюдается дымка, при ухудшении видимости до 1 км и менее - туман. В сухую погоду видимость может ухудшаться дымом, пылью или мглою.
Явления - указаны атмосферные явления, наблюдавшиеся в срок или в последний час перед сроком; фигурными скобками обозначены явления, наблюдавшиеся между сроками (за 1-3 часа до срока); квадратными скобками обозначены град или гололедные отложения с указанием их диаметра в мм.
Облачность - указаны через наклонную черту общая и нижняя облачность в баллах и высота нижней границы облаков в метрах; квадратными скобками обозначены формы облаков: Ci - перистые, Cs - перисто-слоистые, Cc - перисто-кучевые, Ac - высококучевые, As - высокослоистые, Sc - слоисто-кучевые, Ns - слоисто-дождевые, Cu - кучевые, Cb - кучево-дождевые. Подробнее классификацию облаков см. в Атласе облаков (PDF).
T - Температура воздуха - температура, измеренная на высоте 2 м над землей.
Td - Температура точки росы - температура, при понижении до которой содержащийся в воздухе водяной пар достигнет насыщения.
f - Относительная влажность воздуха - влажноcть воздуха, измеренная на высоте 2 м над землей.
Te - Эффективная температура - температура, которую ощущает одетый по сезону человек в тени. Характеристика душности погоды. При расчете учитывается влияние влажности воздуха и скорости ветра на теплоощущения человека.
Tes - Эффективная температура на солнце - температура, которую ощущает человек, с поправкой на солнечный нагрев. Характеристика знойности погоды. Зависит от высоты солнца над горизонтом, облачности и скорости ветра. Ночью, в пасмурную погоду, а также при ветре 12 м/с и более поправка равна нулю.
P - Атмосферное давление - приведенное к уровню моря атмосферное давление.
Po - Атмосферное давление - измеренное на уровне метеостанции атмосферное давление.
Tmin - Минимальная температура - минимум температуры воздуха на высоте 2 м над землей.
Tmax - Максимальная температура - максимум температуры воздуха на высоте 2 м над землей.
R - Количество осадков - Количество выпавших осадков за период времени, мм. При наведении курсора мыши на число - период времени, за который выпало указанное количество осадков.
R24 - Количество осадков - Количество выпавших осадков за 24 часа, мм.
S - Снежный покров - Высота снежного покрова, см. При наведении курсора мыши на число - состояние снежного покрова и степень покрытия местности в баллах.